Simultaneous Nadir Overpasses (SNOs) Predictions

Prediction of SNOs between NOAA-20 and NOAA-19 Satellite Orbit:

Table of predicted SNOs for the next 14.0 days since TLE Epoch: 2/7/2020
Index Date (NOAA-20) Time (NOAA-20) Lat,Lon (NOAA-20) SZA (NOAA-20 ) Date (NOAA-19) Time (NOAA-19) Lat,Lon (NOAA-19) SZA (NOAA-19 ) Distance(km) Time Diff (sec)
1 02/20/2020 18:26:37 -79.55, 48.56 87.40 02/20/2020 18:25:35 -79.57, 48.54 87.35 2.45 62
2 02/20/2020 19:17:23 79.58,-144.41 92.65 02/20/2020 19:16:31 79.56,-144.30 92.64 3.18 52
3 02/20/2020 20:08:08 -79.59, 22.89 87.37 02/20/2020 20:07:36 -79.56, 22.95 87.37 2.62 32
4 02/20/2020 20:58:52 79.55,-169.52 92.57 02/20/2020 20:58:31 79.58,-169.61 92.61 3.55 21
5 02/20/2020 21:49:38 -79.59, -2.50 87.39 02/20/2020 21:49:36 -79.58, -2.36 87.41 2.89 2
6 02/20/2020 22:40:23 79.59, 164.81 92.60 02/20/2020 22:40:32 79.57, 164.79 92.59 1.79 9
7 02/20/2020 23:31:08 -79.59, -27.89 87.41 02/20/2020 23:31:37 -79.57, -27.95 87.43 2.08 29
8 02/21/2020 00:21:53 79.59, 139.42 92.58 02/21/2020 00:22:32 79.59, 139.49 92.56 1.38 39
9 02/21/2020 01:12:38 -79.59, -53.28 87.43 02/21/2020 01:13:37 -79.59, -53.26 87.46 0.56 59




NCC Satellite Simultaneous Nadir Overpasses (SNOs) Prediction Service
